St. Louis, MO

10:08 PM CDT on April 24, 2017 (GMT -0500)
Lambert-Saint Louis International

Weather History for KSTL - June, 2012

Change the Weather History Date:

Sunday, June 3, 2012

  Actual Average Record
Temperature  
Mean Temperature 74 °F 72 °F  
Max Temperature 88 °F 82 °F 96 °F (1911)
Min Temperature 59 °F 63 °F 43 °F (1969)
Degree Days  
Heating Degree Days 0 1  
Month to date heating degree days 5 3  
Since 1 June heating degree days 5 3  
Since 1 July heating degree days 3300 4533  
Cooling Degree Days 9 8  
Month to date cooling degree days 12 22  
Year to date cooling degree days 418 196  
Since 1 June cooling degree days 12 22  
Growing Degree Days 24 (Base 50)    
Moisture  
Dew Point 55 °F    
Average Humidity 56    
Maximum Humidity 78    
Minimum Humidity 34    
Precipitation  
Precipitation 0.00 in 0.16 in 1.54 in (1904)
Month to date precipitation T 0.47  
Year to date precipitation 16.68 16.84  
Snow  
Snow 0.00 in 0.00 in 0.00 in (2015)
Month to date snowfall 0.0 0.0  
Since 1 June snowfall 0.0 0.0  
Since 1 July snowfall 6.3 17.7  
Snow Depth 0.00 in    
Sea Level Pressure  
Sea Level Pressure 29.86 in    
Wind  
Wind Speed 3 mph (WSW)    
Max Wind Speed 12 mph    
Max Gust Speed 22 mph    
Visibility 10 miles    
Events      
T = Trace of Precipitation, MM = Missing Value Source: NWS Daily Summary

Daily Weather History Graph

Daily Weather History Graph

Search for Another Location

Airport or City:

Trip Planner

Search our weather history database for the weather conditions in past years. The results will help you decide how hot, cold, wet, or windy it might be!

Date:

Astronomy

Jun. 03, 2012 Rise Set
Actual Time 5:37 AM CDT 8:22 PM CDT
Civil Twilight 5:06 AM CDT 8:53 PM CDT
Nautical Twilight 4:26 AM CDT 9:33 PM CDT
Astronomical Twilight 3:42 AM CDT 10:17 PM CDT
Moon 7:48 PM CDT (6/3) 4:45 AM CDT (6/3)
Length of Visible Light 15h 47m
Length of Day
14h 44m
Waxing Gibbous, 99% of the Moon is Illuminated
Jun 3
Waxing Gibbous
Jun 4
Full
Jun 11
Last Quarter
Jun 19
New
Jun 26
First Quarter

Hourly Weather History & Observations

Time (CDT) Temp. Heat Index Dew Point Humidity Pressure Visibility Wind Dir Wind Speed Gust Speed Precip Events Conditions
12:51 AM 66.9 °F - 52.0 °F 59% 29.86 in 10.0 mi Calm Calm - N/A   Partly Cloudy
1:51 AM 66.0 °F - 52.0 °F 60% 29.85 in 10.0 mi WSW 3.5 mph - N/A   Clear
2:51 AM 64.0 °F - 52.0 °F 65% 29.85 in 10.0 mi West 3.5 mph - N/A   Clear
3:51 AM 62.1 °F - 53.1 °F 72% 29.86 in 10.0 mi West 4.6 mph - N/A   Partly Cloudy
4:51 AM 62.1 °F - 53.1 °F 72% 29.85 in 10.0 mi Calm Calm - N/A   Partly Cloudy
5:51 AM 61.0 °F - 53.1 °F 75% 29.87 in 10.0 mi West 3.5 mph - N/A   Mostly Cloudy
6:51 AM 64.9 °F - 54.0 °F 68% 29.90 in 10.0 mi West 3.5 mph - N/A   Scattered Clouds
7:51 AM 68.0 °F - 54.0 °F 61% 29.89 in 10.0 mi West 3.5 mph - N/A   Mostly Cloudy
8:51 AM 73.0 °F - 54.0 °F 51% 29.89 in 10.0 mi Calm Calm - N/A   Mostly Cloudy
9:51 AM 75.9 °F - 52.0 °F 43% 29.89 in 10.0 mi Calm Calm - N/A   Mostly Cloudy
10:51 AM 80.6 °F - 51.8 °F 37% 29.93 in 10.0 mi South 4.6 mph - N/A   Overcast
11:51 AM 82.0 °F - 52.0 °F 35% 29.89 in 10.0 mi SSW 3.5 mph - N/A   Overcast
12:51 PM 82.0 °F 81.2 °F 53.1 °F 37% 29.87 in 10.0 mi Calm Calm - N/A   Overcast
1:51 PM 82.9 °F - 52.0 °F 34% 29.82 in 10.0 mi East 5.8 mph - N/A   Overcast
2:51 PM 82.9 °F 81.9 °F 54.0 °F 37% 29.82 in 10.0 mi East 5.8 mph - N/A   Mostly Cloudy
3:51 PM 84.9 °F 83.3 °F 54.0 °F 34% 29.85 in 10.0 mi NNW 3.5 mph - N/A   Mostly Cloudy
4:51 PM 84.9 °F 83.7 °F 55.9 °F 37% 29.84 in 10.0 mi WSW 6.9 mph - N/A   Mostly Cloudy
5:51 PM 84.9 °F 83.9 °F 57.0 °F 38% 29.82 in 10.0 mi Calm Calm - N/A   Mostly Cloudy
6:51 PM 82.9 °F 82.8 °F 59.0 °F 44% 29.82 in 10.0 mi West 9.2 mph - N/A   Overcast
7:51 PM 81.0 °F 81.3 °F 59.0 °F 47% 29.81 in 10.0 mi WSW 6.9 mph - N/A   Mostly Cloudy
8:51 PM 78.1 °F - 59.0 °F 52% 29.81 in 10.0 mi Variable 5.8 mph - N/A   Mostly Cloudy
9:51 PM 75.9 °F - 60.1 °F 58% 29.84 in 10.0 mi Calm Calm - N/A   Mostly Cloudy
10:51 PM 73.9 °F - 60.1 °F 62% 29.85 in 10.0 mi Calm Calm - N/A   Scattered Clouds
11:51 PM 73.9 °F - 60.1 °F 62% 29.83 in 10.0 mi Calm Calm - N/A   Mostly Cloudy